Location: Newark
(25.4297°S, 49.2719°W)
Time: 17:41:24
(UTC+00:00)

Vanguard 3 - All Passes

Search period start: 20 November 2019 00:00
Search period end: 30 November 2019 00:00
Orbit: 508 x 3263 km, 33.4° (Epoch: 20 November)

Date Brightness Start Highest point End Pass type
(mag) Time Alt. Az. Time Alt. Az. Time Alt. Az.
20 Nov - 04:05:17 10° WNW 04:09:14 66° NNE 04:12:57 10° ESE night (unlit)
20 Nov - 06:17:23 10° WSW 06:20:53 33° S 06:25:27 10° ESE visible
20 Nov - 08:28:34 10° WSW 08:33:24 46° SSE 08:41:25 10° E daylight
20 Nov - 10:39:12 10° WSW 10:46:10 76° NNW 10:59:00 10° ENE daylight
20 Nov - 12:51:40 10° W 13:00:27 32° NNW 13:13:53 10° NNE daylight
21 Nov - 02:51:36 10° NNW 02:55:43 29° NNE 02:59:03 10° E night (unlit)
21 Nov - 05:03:27 10° W 05:07:02 45° SSW 05:10:57 10° ESE visible
21 Nov - 07:15:26 10° WSW 07:19:16 33° S 07:24:47 10° ESE visible
21 Nov - 09:26:02 10° WSW 09:31:40 75° SSE 09:41:49 10° ENE daylight
21 Nov - 11:37:15 10° W 11:44:54 45° NNW 11:58:01 10° NE daylight
21 Nov - 13:52:57 10° WNW 14:00:06 17° NNW 14:09:10 10° N daylight
22 Nov - 01:38:25 10° N 01:41:50 16° NNE 01:44:36 10° ENE night (unlit)
22 Nov - 03:49:14 10° WNW 03:53:29 90° NNW 03:57:11 10° ESE night (unlit)
22 Nov - 06:01:54 10° WSW 06:05:14 29° S 06:09:17 10° ESE visible
22 Nov - 08:13:01 10° WSW 08:17:32 48° SSE 08:24:51 10° E daylight
22 Nov - 10:23:38 10° WSW 10:30:00 65° NNW 10:41:33 10° NE daylight
22 Nov - 12:36:32 10° W 12:44:07 25° NNW 12:55:16 10° NNE daylight
23 Nov - 02:34:56 10° NW 02:39:57 42° NNE 02:43:38 10° E night (unlit)
23 Nov - 04:47:46 10° W 04:51:22 37° SSW 04:54:59 10° SE visible
23 Nov - 06:59:55 10° SW 07:03:33 32° S 07:08:32 10° ESE visible
23 Nov - 09:10:26 10° WSW 09:15:39 85° SSE 09:24:53 10° ENE daylight
23 Nov - 11:21:53 10° W 11:28:44 36° NNW 11:40:00 10° NNE daylight
23 Nov - 13:39:45 10° NW 13:43:51 12° NNW 13:48:33 10° N daylight
24 Nov - 01:20:49 10° NNW 01:26:02 24° NNE 01:29:47 10° E night (unlit)
24 Nov - 03:33:09 10° WNW 03:37:46 70° SSW 03:41:26 10° ESE night (unlit)
24 Nov - 05:46:23 10° WSW 05:49:35 26° S 05:53:13 10° ESE visible
24 Nov - 07:57:26 10° WSW 08:01:41 52° SSE 08:08:22 10° E daylight
24 Nov - 10:08:08 10° W 10:13:56 52° NNW 10:24:06 10° NE daylight
24 Nov - 12:21:48 10° WNW 12:27:57 19° NNW 12:36:22 10° N daylight
25 Nov - 00:07:19 10° N 00:11:39 15° NNE 00:15:02 10° ENE visible
25 Nov - 02:18:19 10° NW 02:24:10 58° NNE 02:28:08 10° ESE night (unlit)
25 Nov - 04:32:03 10° WSW 04:35:42 32° SSW 04:39:06 10° SE visible
25 Nov - 06:44:21 10° SW 06:47:50 32° SSE 06:52:23 10° ESE visible
25 Nov - 08:54:52 10° WSW 08:59:42 82° NNW 09:07:59 10° ENE daylight
25 Nov - 11:06:42 10° W 11:12:39 28° NNW 11:21:53 10° NNE daylight
26 Nov - 01:03:28 10° NW 01:10:14 33° NNE 01:14:38 10° E visible
26 Nov - 03:17:02 10° W 03:22:00 56° SSW 03:25:44 10° ESE night (unlit)
26 Nov - 05:30:45 10° WSW 05:33:55 25° S 05:37:19 10° ESE visible
26 Nov - 07:41:49 10° WSW 07:45:53 58° SSE 07:51:58 10° E visible
26 Nov - 09:52:44 10° W 09:57:58 40° NNW 10:06:38 10° NE daylight
26 Nov - 12:07:55 10° NW 12:11:53 13° NNW 12:16:43 10° N daylight
26 Nov - 23:48:55 10° NNW 23:55:47 22° NNE 00:00:33 10° ENE visible
27 Nov - 02:01:40 10° WNW 02:08:21 77° NNE 02:12:36 10° ESE night (unlit)
27 Nov - 04:16:14 10° WSW 04:20:01 29° S 04:23:20 10° SE visible
27 Nov - 06:28:42 10° SW 06:32:08 33° SSE 06:36:22 10° E visible
27 Nov - 08:39:21 10° WSW 08:43:50 65° NNW 08:51:08 10° NE daylight
27 Nov - 10:51:50 10° WNW 10:56:42 20° NNW 11:03:34 10° NNE daylight
27 Nov - 22:35:17 10° N 22:40:48 15° NNE 22:45:07 10° ENE visible
28 Nov - 00:46:11 10° NW 00:54:22 45° NNE 00:59:18 10° E visible
28 Nov - 03:00:51 10° W 03:06:15 48° SSW 03:10:04 10° ESE night (unlit)
28 Nov - 05:15:01 10° SW 05:18:16 25° S 05:21:31 10° ESE visible
28 Nov - 07:26:12 10° WSW 07:30:05 69° SSE 07:35:39 10° ENE visible
28 Nov - 09:37:28 10° W 09:42:05 30° NNW 09:49:08 10° NNE daylight
28 Nov - 23:30:52 10° NNW 23:39:52 30° NNE 23:45:33 10° E visible
29 Nov - 01:44:59 10° WNW 01:52:30 87° SSW 01:57:02 10° ESE visible
29 Nov - 04:00:19 10° WSW 04:04:20 29° S 04:07:39 10° SE night (unlit)
29 Nov - 06:12:58 10° SW 06:16:26 37° SSE 06:20:27 10° E visible
29 Nov - 08:23:52 10° W 08:27:59 49° NNW 08:34:17 10° NE daylight
29 Nov - 10:37:38 10° NW 10:40:49 13° NNW 10:44:43 10° N daylight
29 Nov - 22:16:08 10° NNW 22:24:47 21° NNE 22:30:52 10° ENE visible
